Location: Bjelajci
(45.0103°N, 16.1758°E)
Time: 04:00:13
(UTC+00:00)

Lacrosse 5 - Pass Details

Date: 14 July 2020
Orbit: 717 x 720 km, 57.0° (Epoch: 09 August)

Event Time Altitude Azimuth Distance (km) Brightness Sun altitude
Exits shadow 00:10:41 18° 266° (W) 1,698 3.6 -21.5°
Maximum altitude 00:14:02 43° 330° (NNW) 1,008 2.9 -21.3°
Drops below altitude 10° 00:18:53 10° 42° (NE) 2,206 5.4 -21.0°
Sets 00:21:23 0° 49° (NE) 3,129 6.2 -20.9°
